Location: Chippewa Lake
(41.0698°N, 81.9010°W)
Time: 20:37:37
(UTC+00:00)

Sich 1 - Pass Details

Date: 09 May 2021
Orbit: 595 x 624 km, 82.5° (Epoch: 17 June)

Event Time Altitude Azimuth Distance (km) Brightness Sun altitude
Rises 01:24:42 0° 2° (N) 2,862 6.9 -9.5°
Reaches altitude 10° 01:27:07 10° 13° (NNE) 1,959 5.9 -9.9°
Maximum altitude 01:31:00 31° 76° (ENE) 1,064 3.9 -10.5°
Enters shadow 01:33:58 15° 133° (SE) 1,648 4.6 -11.0°
